When you browse on this site, cookies collect data to enhance your experience and personalize the content and advertising you see.
Visit our Privacy Policy to learn more. By continuing to use the site, you agree to this use of cookies and data.
  • In Schweiz
  • Länderverzeichnis
  • Für 7 Tage
  • Wassertemperatur
  • Wetterkarte
  • Widgets
  • user-avatar
    Anmelden

    Stündliche Wetter Horgen

    Heute, 13 November, Mittwoch

    Zeit Temperatur Niederschläge Wind Luftdruck Luftfeuchtigkeit
    00:00 +1°C° 0.1 mm 0 m/S 704 mmHg 93%
    01:00 +1°C° 0.1 mm 0 m/S 704 mmHg 95%
    02:00 +1°C° 0.3 mm 0 m/S 704 mmHg 96%
    03:00 +1°C° 0.3 mm 0 m/S 704 mmHg 96%
    04:00 +1°C° 0.3 mm 0 m/S 704 mmHg 97%
    05:00 +2°C° 0.2 mm 1 m/S 704 mmHg 97%
    06:00 +2°C° 0.2 mm 1 m/S 704 mmHg 97%
    07:00 +2°C° 0.2 mm 1 m/S 704 mmHg 96%
    08:00 +3°C° 0 mm 1 m/S 704 mmHg 94%
    09:00 +3°C° 0 mm 1 m/S 704 mmHg 91%
    10:00 +4°C° 0 mm 1 m/S 704 mmHg 88%
    11:00 +4°C° 0 mm 1 m/S 704 mmHg 85%
    12:00 +4°C° 0 mm 2 m/S 704 mmHg 81%
    13:00 +5°C° 0 mm 2 m/S 704 mmHg 78%
    14:00 +5°C° 0 mm 1 m/S 704 mmHg 79%
    15:00 +5°C° 0 mm 1 m/S 704 mmHg 81%
    16:00 +3°C° 0 mm 0 m/S 704 mmHg 83%
    17:00 +3°C° 0 mm 1 m/S 705 mmHg 84%
    18:00 +2°C° 0 mm 1 m/S 705 mmHg 86%
    19:00 0°C° 0 mm 1 m/S 705 mmHg 87%
    20:00 0°C° 0 mm 1 m/S 705 mmHg 85%
    21:00 0°C° 0 mm 1 m/S 705 mmHg 83%
    22:00 0°C° 0 mm 1 m/S 705 mmHg 81%
    23:00 -1°C° 0 mm 1 m/S 705 mmHg 79%

    Morgen, 14 November, Donnerstag

    Zeit Temperatur Niederschläge Wind Luftdruck Luftfeuchtigkeit
    00:00 -1°C° 0 mm 1 m/S 705 mmHg 78%
    01:00 -1°C° 0 mm 1 m/S 704 mmHg 77%
    02:00 -1°C° 0 mm 1 m/S 704 mmHg 76%
    03:00 -1°C° 0 mm 1 m/S 704 mmHg 75%
    04:00 -1°C° 0 mm 1 m/S 704 mmHg 74%
    05:00 -1°C° 0 mm 1 m/S 704 mmHg 75%
    06:00 -1°C° 0 mm 1 m/S 704 mmHg 75%
    07:00 -1°C° 0 mm 1 m/S 704 mmHg 76%
    08:00 0°C° 0 mm 1 m/S 704 mmHg 72%
    09:00 +2°C° 0 mm 1 m/S 704 mmHg 68%
    10:00 +3°C° 0 mm 1 m/S 705 mmHg 64%
    11:00 +4°C° 0 mm 1 m/S 704 mmHg 63%
    12:00 +5°C° 0 mm 1 m/S 704 mmHg 61%
    13:00 +6°C° 0 mm 1 m/S 704 mmHg 59%
    14:00 +6°C° 0 mm 1 m/S 703 mmHg 62%
    15:00 +5°C° 0 mm 1 m/S 703 mmHg 65%
    16:00 +4°C° 0 mm 1 m/S 702 mmHg 69%
    17:00 +4°C° 0 mm 1 m/S 702 mmHg 71%
    18:00 +3°C° 0 mm 1 m/S 702 mmHg 73%
    19:00 +2°C° 0 mm 1 m/S 702 mmHg 75%
    20:00 +2°C° 0 mm 1 m/S 702 mmHg 76%
    21:00 +1°C° 0 mm 1 m/S 701 mmHg 78%
    22:00 +1°C° 0 mm 1 m/S 701 mmHg 80%
    23:00 +1°C° 0.1 mm 1 m/S 700 mmHg 82%

    übermorgen, 15 November, Freitag

    Zeit Temperatur Niederschläge Wind Luftdruck Luftfeuchtigkeit
    00:00 +1°C° 0.1 mm 1 m/S 700 mmHg 83%
    01:00 0°C° 0.1 mm 0 m/S 699 mmHg 85%
    02:00 +1°C° 0.4 mm 1 m/S 699 mmHg 86%
    03:00 +1°C° 0.4 mm 1 m/S 699 mmHg 87%
    04:00 +1°C° 0.4 mm 1 m/S 699 mmHg 88%
    05:00 +2°C° 0.4 mm 1 m/S 699 mmHg 89%
    06:00 +2°C° 0.4 mm 1 m/S 700 mmHg 89%
    07:00 +2°C° 0.4 mm 1 m/S 701 mmHg 90%
    08:00 +2°C° 0.3 mm 1 m/S 701 mmHg 93%
    09:00 +3°C° 0.3 mm 1 m/S 702 mmHg 91%
    10:00 +4°C° 0.3 mm 1 m/S 703 mmHg 89%
    11:00 +4°C° 0 mm 1 m/S 703 mmHg 86%
    12:00 +5°C° 0 mm 1 m/S 703 mmHg 84%
    13:00 +6°C° 0 mm 1 m/S 704 mmHg 82%
    14:00 +5°C° 0 mm 1 m/S 703 mmHg 85%
    15:00 +5°C° 0 mm 1 m/S 703 mmHg 87%
    16:00 +4°C° 0 mm 1 m/S 703 mmHg 89%
    17:00 +3°C° 0 mm 0 m/S 704 mmHg 91%
    18:00 +2°C° 0 mm 0 m/S 704 mmHg 92%
    19:00 +2°C° 0 mm 0 m/S 704 mmHg 93%
    20:00 +1°C° 0 mm 0 m/S 705 mmHg 93%
    21:00 +1°C° 0 mm 0 m/S 705 mmHg 93%
    22:00 +1°C° 0 mm 1 m/S 706 mmHg 92%
    23:00 +1°C° 0 mm 1 m/S 706 mmHg 92%

    16 November, Samstag

    Zeit Temperatur Niederschläge Wind Luftdruck Luftfeuchtigkeit
    00:00 +1°C° 0 mm 1 m/S 706 mmHg 91%
    01:00 +1°C° 0 mm 1 m/S 707 mmHg 90%
    02:00 +1°C° 0 mm 1 m/S 707 mmHg 90%
    03:00 +1°C° 0 mm 1 m/S 707 mmHg 89%
    04:00 +1°C° 0 mm 1 m/S 707 mmHg 88%
    05:00 0°C° 0 mm 1 m/S 708 mmHg 88%
    06:00 0°C° 0 mm 1 m/S 708 mmHg 87%
    07:00 0°C° 0 mm 1 m/S 709 mmHg 87%
    08:00 +1°C° 0 mm 1 m/S 709 mmHg 83%
    09:00 +3°C° 0 mm 1 m/S 710 mmHg 80%
    10:00 +4°C° 0 mm 0 m/S 710 mmHg 76%
    11:00 +5°C° 0 mm 0 m/S 710 mmHg 75%
    12:00 +7°C° 0 mm 1 m/S 710 mmHg 73%
    13:00 +7°C° 0 mm 1 m/S 710 mmHg 72%
    14:00 +6°C° 0 mm 0 m/S 710 mmHg 76%
    15:00 +5°C° 0 mm 0 m/S 710 mmHg 79%
    16:00 +4°C° 0 mm 0 m/S 710 mmHg 83%
    17:00 +3°C° 0 mm 0 m/S 710 mmHg 85%
    18:00 +3°C° 0 mm 1 m/S 710 mmHg 86%
    19:00 +2°C° 0 mm 1 m/S 710 mmHg 88%
    20:00 +2°C° 0 mm 1 m/S 710 mmHg 87%
    21:00 +2°C° 0 mm 1 m/S 710 mmHg 87%
    22:00 +2°C° 0 mm 1 m/S 710 mmHg 86%
    23:00 +2°C° 0 mm 1 m/S 710 mmHg 86%

    17 November, Sonntag

    Zeit Temperatur Niederschläge Wind Luftdruck Luftfeuchtigkeit
    00:00 +2°C° 0 mm 1 m/S 709 mmHg 86%
    01:00 +1°C° 0 mm 0 m/S 709 mmHg 86%
    02:00 +1°C° 0 mm 0 m/S 709 mmHg 87%
    03:00 +1°C° 0 mm 0 m/S 708 mmHg 87%
    04:00 +1°C° 0 mm 0 m/S 708 mmHg 88%
    05:00 0°C° 0 mm 0 m/S 708 mmHg 89%
    06:00 0°C° 0 mm 0 m/S 707 mmHg 90%
    07:00 0°C° 0 mm 0 m/S 707 mmHg 91%
    08:00 +1°C° 0 mm 0 m/S 707 mmHg 88%
    09:00 +2°C° 0 mm 0 m/S 707 mmHg 84%
    10:00 +3°C° 0 mm 0 m/S 707 mmHg 81%
    11:00 +5°C° 0 mm 1 m/S 706 mmHg 80%
    12:00 +5°C° 0 mm 1 m/S 705 mmHg 79%
    13:00 +6°C° 0 mm 1 m/S 704 mmHg 78%
    14:00 +5°C° 0.1 mm 1 m/S 704 mmHg 82%
    15:00 +5°C° 0.1 mm 1 m/S 704 mmHg 86%
    16:00 +4°C° 0.1 mm 1 m/S 704 mmHg 89%
    17:00 +4°C° 0.7 mm 1 m/S 704 mmHg 92%
    18:00 +4°C° 0.7 mm 1 m/S 704 mmHg 95%
    19:00 +2°C° 0.7 mm 0 m/S 704 mmHg 98%
    20:00 +2°C° 0.5 mm 0 m/S 704 mmHg 98%
    21:00 +2°C° 0.5 mm 0 m/S 704 mmHg 98%
    22:00 +2°C° 0.5 mm 0 m/S 704 mmHg 98%
    23:00 +3°C° 0.1 mm 1 m/S 704 mmHg 98%

    18 November, Montag

    Zeit Temperatur Niederschläge Wind Luftdruck Luftfeuchtigkeit
    00:00 +3°C° 0.1 mm 1 m/S 704 mmHg 97%
    01:00 +3°C° 0.1 mm 1 m/S 704 mmHg 97%
    02:00 +3°C° 0.1 mm 1 m/S 704 mmHg 97%
    03:00 +3°C° 0.1 mm 1 m/S 704 mmHg 97%
    04:00 +3°C° 0.1 mm 1 m/S 704 mmHg 97%
    05:00 +3°C° 0.1 mm 1 m/S 705 mmHg 97%
    06:00 +2°C° 0.1 mm 0 m/S 705 mmHg 97%
    07:00 +2°C° 0.1 mm 0 m/S 706 mmHg 97%
    08:00 +3°C° 0 mm 0 m/S 706 mmHg 97%
    09:00 +3°C° 0 mm 0 m/S 707 mmHg 97%
    10:00 +3°C° 0 mm 0 m/S 707 mmHg 96%
    11:00 +4°C° 0 mm 0 m/S 707 mmHg 95%
    12:00 +4°C° 0 mm 0 m/S 707 mmHg 93%
    13:00 +6°C° 0 mm 1 m/S 708 mmHg 91%
    14:00 +5°C° 0 mm 0 m/S 708 mmHg 92%
    15:00 +4°C° 0 mm 0 m/S 708 mmHg 92%
    16:00 +4°C° 0 mm 0 m/S 708 mmHg 93%
    17:00 +4°C° 0 mm 0 m/S 709 mmHg 93%
    18:00 +3°C° 0 mm 0 m/S 709 mmHg 93%
    19:00 +3°C° 0 mm 0 m/S 709 mmHg 93%
    20:00 +3°C° 0 mm 0 m/S 709 mmHg 93%
    21:00 +3°C° 0 mm 0 m/S 710 mmHg 93%
    22:00 +3°C° 0 mm 0 m/S 710 mmHg 93%
    23:00 +3°C° 0 mm 0 m/S 710 mmHg 93%
    Mehr zeigen